Weather in Imperia

Italy     43°53′33″N   8°02′11″E
temp.,
°C
wind,
m/s
gust,
m/s
humid.,
%
clouds,
%
prec.,
mm/h
press.,
hPa
HPBL,
m
23 january, sat
sat2301:00+5nnw2288100 6.4 99144
04:00+4n1189100 0.1 99331
07:00+4wnw2282100 0.0 99424
10:00+6nw1180100 0.0 99789
13:00+9ssw227567 0.0 998623
16:00+8sse017867 0.0 99845
19:00+4wsw228283 0.0 99764
22:00+3nw337110 0.0 99736
24 january, sun
sun2401:00+3nw337450 0.0 99837
04:00+3nnw2371100 0.0 99538
07:00+2nnw3367100 0.0 99458
10:00+5nnw3463100 0.0 996168
13:00+8nne134357 0.0 998935
16:00+8e12570 0.0 1000184
19:00+3nw33700 0.0 100336
22:00+3w33750 0.0 100437
25 january, mon
mon2501:00+1nw44600 0.0 100179
04:00+1w33720 0.0 100065
07:00+1nw512364 0.0 1006434
10:00+4nw36360 0.0 1009360
13:00+8ne235682 0.0 1001605
16:00+7s116052 0.0 1004189
19:00+2nw336426 0.0 100747
22:00+1nw33600 0.0 101051
26 january, tue
tue2601:000nw445436 0.0 101262
04:000nw44461 0.0 101265
07:00+1nw33480 0.0 101442
10:00+5nw12500 0.0 101694
13:00+7s22560 0.0 1015696
16:00+6s116573 0.0 1014132
19:00+2nw337754 0.0 101633
22:00+2nnw33710 0.0 101741
27 january, wed
wed2701:00+2nw33651 0.0 101736
04:00+1nw336658 0.0 101632
07:00+1nw236017 0.0 101628
10:00+5n11622 0.0 1018178
13:00+8ene126636 0.0 1018567
16:00+7ese1175100 0.0 1017504
19:00+4nw227517 0.0 101722
22:00+3nw2279100 0.0 101925